{"data":{"norad_id":69391,"intl_designator":"2026-124K","name":"QIANFAN-174","alt_names":[],"object_type":"PAYLOAD","status":"ACTIVE","operator":null,"country":"PRC","launch_date":"2026-06-04","launch_site_code":"TAISC","launch_vehicle":null,"mission":null,"orbit_class":"UNKNOWN","rcs_meters":null,"size_class":null,"mass_kg":null,"dimensions":null,"purposes":[],"wikipedia_slug":null,"has_3d_model":false,"image_url":null,"decayed_at":null,"tle_current":{"epoch":"2026-09-20T22:37:33.962016Z","epoch_age_seconds":87743,"freshness":"FRESH","line1":"1 69391U 26124K   26263.94275419  .00000109  00000+0  15090-3 0  9990","line2":"2 69391  89.0042 351.9031 0002247 108.6403 251.4993 13.51030722 14992","mean_motion":13.51030722,"eccentricity":0.0002247,"inclination_deg":89.0042,"raan_deg":351.9031,"arg_perigee_deg":108.6403,"mean_anomaly_deg":251.4993,"bstar":0.0001509,"rev_number":1499,"period_min":106.58528903534,"perigee_km":1066.7954418758,"apogee_km":1070.1419464748,"semimajor_km":7446.6056941753,"source":"CELESTRAK","updated_at":"2026-09-21T09:00:17.991010Z"}}}